Date String (YYYY-MM-DD hh:mm:ss) UTC,Instrument flags,absolute air pressure of the measurement (hPa),sample flow rate (lpm),inlet stack bypass flow (lpm),air temperature of the measurement (°C),ambient temperature measured by the external sensor (°C),aerosol sample conditioner tube jacket temperature (°C),OPC LED temperature (°C),internal box temperature (°C),relative humidity of the measurement (%),span deviation,mass concentration of particles derived from Lorenz-Mie calculation of OPC scattering (μg/m³),mass concentration of particles derived from Lorenz-Mie calculation of OPC scattering (μg/m³),mass concentration of particles derived from Lorenz-Mie calculation of OPC scattering (μg/m³)
DateTimeUTC,F1_M11,P_M11,Q1_M11,Q2_M11,T1_M11,T2_M11,T3_M11,T4_M11,T5_M11,U1_M11,ZSPAN_M11,X0_M11,X2_M11,X1_M11
2023-11-03 18:00:00,SystemResetWarning,0831.7,5.00,000.00,028.3,026.9,000.0,036.7,029.7,12.0,0000.0,0003.38,0001.57,0001.13
2023-11-03 18:01:00,SystemResetWarning,0831.7,5.01,000.00,028.3,027.0,000.0,036.7,029.7,11.9,0000.0,0003.52,0001.62,0001.14
2023-11-03 18:02:00,SystemResetWarning,0831.8,5.00,000.00,028.3,027.1,000.0,036.7,029.8,11.7,0000.0,0003.60,0001.59,0001.12
2023-11-03 18:03:00,SystemResetWarning,0831.7,5.00,000.00,028.4,027.2,000.0,036.7,029.8,11.6,0000.0,0003.52,0001.55,0001.13
2023-11-03 18:04:00,SystemResetWarning,0831.8,5.01,000.00,028.4,027.3,000.0,036.7,029.8,11.7,0000.0,0003.53,0001.55,0001.13
2023-11-03 18:05:00,SystemResetWarning,0831.9,4.99,000.00,028.4,027.3,000.0,036.7,029.9,11.9,0000.0,0003.53,0001.54,0001.12
2023-11-03 18:06:00,SystemResetWarning,0831.7,5.00,000.00,028.4,027.4,000.0,036.7,029.9,11.9,0000.0,0003.50,0001.50,0001.11
2023-11-03 18:07:00,SystemResetWarning,0831.7,4.99,000.00,028.5,027.5,000.0,036.7,029.9,11.8,0000.0,0003.54,0001.50,0001.10
2023-11-03 18:08:00,SystemResetWarning,0831.7,5.00,000.00,028.5,027.5,000.0,036.8,029.9,11.8,0000.0,0003.59,0001.51,0001.10
2023-11-03 18:09:00,SystemResetWarning,0831.7,5.00,000.00,028.5,027.5,000.0,036.8,030.0,11.7,0000.0,0003.53,0001.49,0001.08
2023-11-03 18:10:00,SystemResetWarning,0831.9,5.00,000.00,028.5,027.6,000.0,036.8,030.0,11.6,0000.0,0003.35,0001.42,0001.06
2023-11-03 18:11:00,SystemResetWarning,0831.9,5.00,000.00,028.5,027.6,000.0,036.8,030.0,11.5,0000.0,0002.47,0001.39,0001.06
2023-11-03 18:12:00,SystemResetWarning,0831.9,5.00,000.00,028.6,027.7,000.0,036.8,030.0,11.7,0000.0,0002.50,0001.37,0001.05
2023-11-03 18:13:00,SystemResetWarning,0831.7,5.00,000.00,028.6,027.7,000.0,036.8,030.0,11.8,0000.0,0002.28,0001.35,0001.06
2023-11-03 18:14:00,SystemResetWarning,0831.8,5.00,000.00,028.6,027.7,000.0,036.9,030.1,11.6,0000.0,0002.13,0001.32,0001.05
2023-11-03 18:15:00,SystemResetWarning,0832.0,5.00,000.00,028.6,027.7,000.0,036.9,030.1,11.6,0000.0,0002.04,0001.32,0001.06
2023-11-03 18:16:00,SystemResetWarning,0831.7,5.00,000.00,028.6,027.8,000.0,036.9,030.1,11.6,0000.0,0002.17,0001.34,0001.05
2023-11-03 18:17:00,SystemResetWarning,0831.7,4.99,000.00,028.7,027.8,000.0,036.9,030.1,11.7,0000.0,0003.06,0001.52,0001.08
2023-11-03 18:18:00,SystemResetWarning,0831.7,4.99,000.00,028.7,027.8,000.0,036.9,030.2,11.7,0000.0,0003.46,0001.64,0001.09
2023-11-03 18:19:00,SystemResetWarning,0831.8,5.00,000.00,028.7,026.7,000.0,036.9,030.2,11.7,0000.0,0003.77,0001.73,0001.10
2023-11-03 18:20:00,SystemResetWarning,0831.7,5.00,000.00,028.6,025.4,000.0,036.9,030.0,11.9,0000.0,0003.93,0001.81,0001.12
2023-11-03 18:21:00,SystemResetWarning,0831.7,5.02,000.00,028.6,025.4,000.0,036.9,029.9,11.7,0000.0,0004.72,0001.85,0001.13
2023-11-03 18:22:00,SystemResetWarning,0831.7,5.00,000.00,028.5,025.7,000.0,036.8,029.6,11.7,0000.0,0004.80,0001.85,0001.13
2023-11-03 18:23:00,SystemResetWarning,0831.7,5.00,000.00,028.4,026.1,000.0,036.8,029.5,11.8,0000.0,0004.68,0001.82,0001.13
2023-11-03 18:24:00,SystemResetWarning,0831.6,5.00,000.00,028.4,026.3,000.0,036.8,029.6,12.0,0000.0,0004.80,0001.82,0001.12
2023-11-03 18:25:00,SystemResetWarning,0831.6,5.00,000.00,028.4,026.6,000.0,036.8,029.6,11.9,0000.0,0005.05,0001.86,0001.11
2023-11-03 18:26:00,SystemResetWarning,0831.6,4.99,000.00,028.4,026.8,000.0,036.8,029.7,12.1,0000.0,0005.02,0001.84,0001.10
2023-11-03 18:27:00,SystemResetWarning,0831.6,5.00,000.00,028.4,026.9,000.0,036.8,029.7,11.9,0000.0,0004.93,0001.80,0001.07
2023-11-03 18:28:00,SystemResetWarning,0831.6,5.00,000.00,028.4,027.0,000.0,036.8,029.8,12.0,0000.0,0004.27,0001.66,0001.05
2023-11-03 18:29:00,SystemResetWarning,0831.6,5.00,000.00,028.4,027.2,000.0,036.8,029.8,12.0,0000.0,0004.11,0001.48,0001.00
2023-11-03 18:30:00,SystemResetWarning,0831.6,5.00,000.00,028.4,027.2,000.0,036.7,029.8,11.8,0000.0,0003.77,0001.36,0000.98
2023-11-03 18:31:00,SystemResetWarning,0831.6,5.01,000.00,028.4,027.3,000.0,036.8,029.9,11.9,0000.0,0003.45,0001.21,0000.94
2023-11-03 18:32:00,SystemResetWarning,0831.6,5.00,000.00,028.5,027.4,000.0,036.8,029.9,11.9,0000.0,0002.95,0001.14,0000.91
2023-11-03 18:33:00,SystemResetWarning,0831.6,5.01,000.00,028.5,027.4,000.0,036.8,029.9,11.8,0000.0,0002.59,0001.14,0000.89
2023-11-03 18:34:00,SystemResetWarning,0831.6,5.00,000.00,028.5,027.5,000.0,036.8,029.9,11.9,0000.0,0002.48,0001.09,0000.87
2023-11-03 18:35:00,SystemResetWarning,0831.5,5.00,000.00,028.5,027.5,000.0,036.8,030.0,12.0,0000.0,0002.49,0001.12,0000.87
2023-11-03 18:36:00,SystemResetWarning,0831.5,4.99,000.00,028.5,027.5,000.0,036.8,030.0,11.9,0000.0,0002.52,0001.15,0000.87
2023-11-03 18:37:00,SystemResetWarning,0831.5,4.99,000.00,028.6,027.6,000.0,036.8,030.0,11.8,0000.0,0002.60,0001.18,0000.88
2023-11-03 18:38:00,SystemResetWarning,0831.5,5.00,000.00,028.6,027.6,000.0,036.8,030.0,11.7,0000.0,0002.78,0001.23,0000.91
2023-11-03 18:39:00,SystemResetWarning,0831.5,5.00,000.00,028.6,027.6,000.0,036.8,030.0,11.7,0000.0,0003.90,0001.30,0000.93
2023-11-03 18:40:00,SystemResetWarning,0831.6,5.00,000.00,028.6,027.6,000.0,036.9,030.0,12.0,0000.0,0003.37,0001.29,0000.93
2023-11-03 18:41:00,SystemResetWarning,0831.5,5.00,000.00,028.6,027.2,000.0,036.9,030.1,11.7,0000.0,0003.25,0001.29,0000.94
2023-11-03 18:42:00,SystemResetWarning,0831.5,5.00,000.00,028.6,025.6,000.0,036.8,030.0,11.9,0000.0,0003.28,0001.32,0000.95
2023-11-03 18:43:00,SystemResetWarning,0831.5,5.01,000.00,028.5,025.2,000.0,036.8,029.9,12.0,0000.0,0003.50,0001.34,0000.96
2023-11-03 18:44:00,SystemResetWarning,0831.5,5.01,000.00,028.4,025.4,000.0,036.8,029.5,12.0,0000.0,0004.01,0001.34,0000.97
2023-11-03 18:45:00,SystemResetWarning,0831.5,5.00,000.00,028.3,025.7,000.0,036.7,029.4,12.3,0000.0,0004.11,0001.40,0000.99
2023-11-03 18:46:00,SystemResetWarning,0831.6,4.99,000.00,028.3,026.0,000.0,036.7,029.5,12.4,0000.0,0004.08,0001.39,0000.99
2023-11-03 18:47:00,SystemResetWarning,0831.5,5.00,000.00,028.3,026.3,000.0,036.7,029.5,12.3,0000.0,0003.75,0001.34,0000.97
2023-11-03 18:48:00,SystemResetWarning,0831.5,5.00,000.00,028.3,026.5,000.0,036.7,029.6,12.2,0000.0,0003.72,0001.33,0000.96
2023-11-03 18:49:00,SystemResetWarning,0831.5,5.01,000.00,028.3,026.7,000.0,036.7,029.6,12.1,0000.0,0003.69,0001.30,0000.95
2023-11-03 18:50:00,SystemResetWarning,0831.5,5.01,000.00,028.3,026.8,000.0,036.7,029.7,11.9,0000.0,0003.00,0001.28,0000.95
2023-11-03 18:51:00,SystemResetWarning,0831.6,5.00,000.00,028.3,027.0,000.0,036.7,029.7,12.0,0000.0,0002.62,0001.27,0000.96
2023-11-03 18:52:00,SystemResetWarning,0831.6,5.00,000.00,028.3,027.1,000.0,036.7,029.7,12.1,0000.0,0002.63,0001.29,0000.96
2023-11-03 18:53:00,SystemResetWarning,0831.6,5.00,000.00,028.3,027.2,000.0,036.7,029.8,12.2,0000.0,0002.62,0001.28,0000.96
2023-11-03 18:54:00,SystemResetWarning,0831.5,5.00,000.00,028.4,027.3,000.0,036.7,029.8,12.2,0000.0,0002.70,0001.27,0000.95
2023-11-03 18:55:00,SystemResetWarning,0831.5,5.00,000.00,028.4,027.3,000.0,036.7,029.9,12.2,0000.0,0002.09,0001.29,0000.94
2023-11-03 18:56:00,SystemResetWarning,0831.5,5.00,000.00,028.4,027.4,000.0,036.7,029.9,11.8,0000.0,0002.01,0001.28,0000.93
2023-11-03 18:57:00,SystemResetWarning,0831.4,5.00,000.00,028.5,027.5,000.0,036.7,029.9,11.9,0000.0,0001.94,0001.24,0000.91
2023-11-03 18:58:00,SystemResetWarning,0831.5,5.00,000.00,028.5,027.5,000.0,036.7,030.0,12.0,0000.0,0001.97,0001.24,0000.92
2023-11-03 18:59:00,SystemResetWarning,0831.4,4.99,000.00,028.5,027.6,000.0,036.7,030.0,12.1,0000.0,0002.10,0001.22,0000.91
